SWR2CL LSZH-LIRF

Flight info

Callsign SWR2CL
Flight time N/A
Altitude 35000
Route DEGES3W DEGES Y170 ARGAX DCT RESIA DCT BENUS DCT BAGNO DCT GAVRA DCT RITEB RITEB4A
Aircraft A321/M-SDE3FGHIRWY/LB1

Departure

Time 2026-04-30 07:25
Airport Zürich Airport (LSZH)

Arrival

Time N/A
Airport Rome–Fiumicino Leonardo da Vinci International Airport (LIRF)
Time Latitude Longitude Altitude Speed Heading
2026-04-30 07:02 47.46050 8.55471 1399 ft 0 kts
2026-04-30 07:02 47.46047 8.55470 1399 ft 0 kts
2026-04-30 07:18 47.46038 8.55469 1399 ft 4 kts
2026-04-30 07:19 47.46011 8.55464 1398 ft 4 kts
2026-04-30 07:19 47.45988 8.55461 1399 ft 4 kts 15°
2026-04-30 07:19 47.45972 8.55442 1399 ft 4 kts 81°
2026-04-30 07:19 47.45972 8.55403 1403 ft 4 kts 96°
2026-04-30 07:20 47.45973 8.55392 1398 ft 0 kts 96°
2026-04-30 07:21 47.45973 8.55393 1398 ft 1 kts 96°
2026-04-30 07:21 47.45969 8.55445 1407 ft 9 kts 96°
2026-04-30 07:22 47.45944 8.55801 1404 ft 25 kts 95°
2026-04-30 07:22 47.45924 8.56075 1409 ft 26 kts 96°
2026-04-30 07:22 47.45907 8.56324 1414 ft 23 kts 96°
2026-04-30 07:23 47.45835 8.56496 1420 ft 18 kts 138°
2026-04-30 07:23 47.45795 8.56657 1424 ft 16 kts 95°
2026-04-30 07:23 47.45785 8.56815 1421 ft 15 kts 96°
2026-04-30 07:23 47.45772 8.56963 1424 ft 14 kts 106°
2026-04-30 07:24 47.45699 8.57029 1425 ft 14 kts 189°
2026-04-30 07:24 47.45665 8.56921 1423 ft 14 kts 284°
2026-04-30 07:24 47.45669 8.56883 1423 ft 5 kts 276°
2026-04-30 07:24 47.45707 8.56397 1418 ft 94 kts 277°
2026-04-30 07:25 47.45809 8.55041 1397 ft 168 kts 276°
2026-04-30 07:25 47.45944 8.53209 1996 ft 187 kts 277°
2026-04-30 07:25 47.46107 8.51241 2865 ft 197 kts 278°
2026-04-30 07:25 47.46261 8.49131 3115 ft 217 kts 275°
2026-04-30 07:26 47.46125 8.46803 3366 ft 238 kts 250°
2026-04-30 07:26 47.45346 8.44634 3992 ft 239 kts 236°
2026-04-30 07:26 47.44465 8.42557 4753 ft 239 kts 236°
2026-04-30 07:26 47.43595 8.40462 5482 ft 240 kts 237°
2026-04-30 07:27 47.42697 8.38380 6144 ft 240 kts 225°
2026-04-30 07:27 47.41329 8.37070 6781 ft 235 kts 191°
2026-04-30 07:27 47.39728 8.37049 7375 ft 231 kts 159°
2026-04-30 07:27 47.38392 8.38272 7973 ft 227 kts 127°
2026-04-30 07:28 47.37722 8.40344 8558 ft 226 kts 96°
2026-04-30 07:28 47.37921 8.42623 9128 ft 228 kts 64°
2026-04-30 07:28 47.38901 8.44475 9739 ft 233 kts 45°
2026-04-30 07:28 47.40036 8.46243 10093 ft 247 kts 57°
2026-04-30 07:29 47.40710 8.48668 10243 ft 267 kts 75°
2026-04-30 07:29 47.41197 8.51376 10394 ft 288 kts 75°
2026-04-30 07:29 47.41727 8.54338 10518 ft 309 kts 75°
2026-04-30 07:29 47.42293 8.57501 10645 ft 328 kts 75°
2026-04-30 07:30 47.43489 8.64178 11524 ft 341 kts 74°
2026-04-30 07:30 47.44106 8.67626 12082 ft 344 kts 74°
2026-04-30 07:30 47.44712 8.71015 12693 ft 346 kts 74°
2026-04-30 07:31 47.45331 8.74471 13245 ft 350 kts 74°
2026-04-30 07:31 47.45957 8.77961 13832 ft 353 kts 74°
2026-04-30 07:31 47.46370 8.81566 14319 ft 359 kts 85°
2026-04-30 07:31 47.46271 8.85259 14858 ft 362 kts 96°
2026-04-30 07:32 47.45765 8.88914 15393 ft 364 kts 100°
2026-04-30 07:32 47.45223 8.92586 15844 ft 368 kts 99°
2026-04-30 07:32 47.44683 8.96305 16306 ft 371 kts 99°
2026-04-30 07:32 47.44145 9.00039 16794 ft 373 kts 99°
2026-04-30 07:33 47.43607 9.03799 17285 ft 375 kts 98°
2026-04-30 07:33 47.43067 9.07576 17782 ft 377 kts 98°
2026-04-30 07:33 47.42482 9.11368 18250 ft 381 kts 103°
2026-04-30 07:33 47.41389 9.14962 18667 ft 390 kts 118°
2026-04-30 07:34 47.39654 9.18090 19049 ft 399 kts 133°
2026-04-30 07:34 47.37373 9.20487 19415 ft 408 kts 149°
2026-04-30 07:34 47.34692 9.21941 19749 ft 416 kts 165°
2026-04-30 07:34 47.31833 9.22728 20095 ft 419 kts 167°
2026-04-30 07:35 47.28956 9.23486 20451 ft 421 kts 167°
2026-04-30 07:35 47.26064 9.24245 20812 ft 423 kts 166°
2026-04-30 07:35 47.23167 9.25007 21168 ft 424 kts 166°
2026-04-30 07:35 47.20258 9.25775 21528 ft 426 kts 167°
2026-04-30 07:36 47.17326 9.26551 21848 ft 429 kts 167°
2026-04-30 07:36 47.14380 9.27328 22234 ft 431 kts 166°
2026-04-30 07:36 47.11465 9.28096 22588 ft 432 kts 167°
2026-04-30 07:36 47.08514 9.28991 22933 ft 432 kts 161°
2026-04-30 07:37 47.05701 9.30505 23297 ft 430 kts 151°
2026-04-30 07:37 47.03109 9.32663 23655 ft 427 kts 141°
2026-04-30 07:37 47.00796 9.35372 23987 ft 425 kts 133°
2026-04-30 07:37 46.98597 9.38292 24260 ft 427 kts 134°
2026-04-30 07:38 46.96385 9.41210 24494 ft 429 kts 134°
2026-04-30 07:38 46.94160 9.44131 24788 ft 431 kts 134°
2026-04-30 07:38 46.91924 9.47060 25039 ft 433 kts 134°
2026-04-30 07:38 46.89673 9.50010 25284 ft 435 kts 134°
2026-04-30 07:39 46.88174 9.51974 25472 ft 437 kts 134°
2026-04-30 07:39 46.85906 9.54945 25772 ft 438 kts 134°
2026-04-30 07:39 46.83635 9.57922 26048 ft 439 kts 134°
2026-04-30 07:39 46.81356 9.60907 26329 ft 441 kts 134°
2026-04-30 07:40 46.79068 9.63892 26617 ft 443 kts 134°
2026-04-30 07:40 46.76764 9.66895 26927 ft 444 kts 135°
2026-04-30 07:40 46.74455 9.69907 27132 ft 448 kts 135°
2026-04-30 07:40 46.72123 9.72951 27360 ft 451 kts 135°
2026-04-30 07:41 46.69779 9.76001 27622 ft 452 kts 135°
2026-04-30 07:41 46.67423 9.79053 27923 ft 455 kts 135°
2026-04-30 07:41 46.65053 9.82115 28202 ft 456 kts 135°
2026-04-30 07:41 46.62679 9.85185 28457 ft 458 kts 135°
2026-04-30 07:42 46.60295 9.88271 28691 ft 460 kts 135°
2026-04-30 07:42 46.57901 9.91368 28923 ft 461 kts 135°
2026-04-30 07:42 46.55499 9.94467 29152 ft 463 kts 135°
2026-04-30 07:42 46.53088 9.97575 29375 ft 464 kts 135°
2026-04-30 07:43 46.50669 10.00700 29523 ft 467 kts 136°
2026-04-30 07:43 46.48162 10.03734 29654 ft 472 kts 142°
2026-04-30 07:43 46.45357 10.06250 29807 ft 475 kts 150°
2026-04-30 07:43 46.42418 10.08464 29993 ft 476 kts 151°
2026-04-30 07:44 46.39481 10.10685 30258 ft 476 kts 150°
2026-04-30 07:44 46.36552 10.12909 30474 ft 476 kts 150°
2026-04-30 07:44 46.33658 10.15106 30673 ft 476 kts 150°
2026-04-30 07:44 46.30726 10.17327 30886 ft 475 kts 150°
2026-04-30 07:45 46.27790 10.19548 31109 ft 475 kts 150°
2026-04-30 07:45 46.24863 10.21761 31322 ft 475 kts 150°
2026-04-30 07:45 46.21938 10.23977 31538 ft 475 kts 150°
2026-04-30 07:45 46.19011 10.26189 31773 ft 474 kts 150°
2026-04-30 07:46 46.16089 10.28389 32006 ft 474 kts 150°
2026-04-30 07:46 46.13161 10.30590 32232 ft 474 kts 150°
2026-04-30 07:46 46.10239 10.32783 32459 ft 473 kts 151°
2026-04-30 07:46 46.07317 10.34969 32633 ft 473 kts 151°
2026-04-30 07:47 46.04392 10.37155 32842 ft 474 kts 151°
2026-04-30 07:47 46.01466 10.39340 33043 ft 474 kts 151°
2026-04-30 07:47 45.98537 10.41530 33254 ft 474 kts 151°
2026-04-30 07:47 45.95615 10.43713 33478 ft 473 kts 151°
2026-04-30 07:48 45.92693 10.45896 33691 ft 473 kts 151°
2026-04-30 07:48 45.89775 10.48071 33898 ft 473 kts 151°
2026-04-30 07:48 45.86849 10.50246 34076 ft 473 kts 152°
2026-04-30 07:48 45.83930 10.52419 34222 ft 473 kts 152°
2026-04-30 07:49 45.81003 10.54591 34374 ft 473 kts 152°
2026-04-30 07:49 45.78074 10.56755 34534 ft 474 kts 152°
2026-04-30 07:49 45.75179 10.58891 34697 ft 474 kts 152°
2026-04-30 07:49 45.72250 10.61056 34844 ft 474 kts 152°
2026-04-30 07:50 45.69320 10.63225 35023 ft 474 kts 152°
2026-04-30 07:50 45.66386 10.65399 35174 ft 474 kts 153°
2026-04-30 07:50 45.63450 10.67566 35257 ft 474 kts 153°
2026-04-30 07:51 45.57553 10.71889 35285 ft 480 kts 153°
2026-04-30 07:51 45.51568 10.76277 35287 ft 486 kts 153°
2026-04-30 07:52 45.45535 10.80698 35290 ft 487 kts 153°
2026-04-30 07:52 45.39525 10.85095 35302 ft 491 kts 154°
2026-04-30 07:53 45.33438 10.89521 35332 ft 491 kts 154°
2026-04-30 07:53 45.27351 10.93942 35298 ft 492 kts 154°
2026-04-30 07:54 45.21259 10.98372 35276 ft 492 kts 154°
2026-04-30 07:54 45.15148 11.02790 35261 ft 493 kts 154°
2026-04-30 07:55 45.09033 11.07197 35272 ft 494 kts 154°
2026-04-30 07:55 45.02905 11.11612 35255 ft 494 kts 155°
2026-04-30 07:56 44.96766 11.16020 35249 ft 495 kts 155°
2026-04-30 07:56 44.90604 11.20413 35263 ft 496 kts 156°
2026-04-30 07:57 44.84330 11.24447 35275 ft 495 kts 160°
2026-04-30 07:57 44.77987 11.28088 35244 ft 496 kts 161°
2026-04-30 07:58 44.71549 11.31773 35247 ft 497 kts 161°
2026-04-30 07:58 44.65203 11.35526 35256 ft 498 kts 160°
2026-04-30 07:59 44.58913 11.39311 35277 ft 487 kts 160°
2026-04-30 07:59 44.52681 11.43027 35280 ft 487 kts 161°
2026-04-30 08:00 44.43314 11.48553 35276 ft 487 kts 161°
2026-04-30 08:00 44.37063 11.52216 35276 ft 488 kts 162°
2026-04-30 08:01 44.30838 11.55876 35277 ft 488 kts 162°
2026-04-30 08:01 44.24571 11.59558 35272 ft 488 kts 162°
2026-04-30 08:02 44.15177 11.65050 35273 ft 488 kts 162°
2026-04-30 08:03 44.02643 11.72348 35282 ft 488 kts 162°
2026-04-30 08:04 43.96381 11.75982 35254 ft 488 kts 162°
2026-04-30 08:04 43.90091 11.79497 35242 ft 484 kts 168°
2026-04-30 08:05 43.83573 11.81295 35196 ft 475 kts 178°
2026-04-30 08:05 43.80289 11.81932 34224 ft 482 kts 178°